Time,TemperatureF,DewpointF,PressureIn,WindDirection,WindDirectionDegrees,WindSpeedMPH,WindSpeedGustMPH,Humidity,HourlyPrecipIn,Conditions,Clouds,dailyrainin,SoftwareType,DateUTC
2013-03-30 00:02:00,31.0,29.0,30.28,NNW,329,3.0,-999.0,93,-99.99,,,-99.99,,2013-03-30 06:02:00,
2013-03-30 00:11:00,31.0,29.0,30.28,NNW,329,3.0,-999.0,93,-99.99,,,-99.99,,2013-03-30 06:11:00,
2013-03-30 00:22:00,30.0,28.0,30.28,NW,324,2.0,-999.0,92,-99.99,,,-99.99,,2013-03-30 06:22:00,
2013-03-30 00:32:00,31.0,29.0,30.28,NW,322,2.0,-999.0,92,-99.99,,,-99.99,,2013-03-30 06:32:00,
2013-03-30 00:42:00,31.0,29.0,30.28,NW,322,2.0,-999.0,92,-99.99,,,-99.99,,2013-03-30 06:42:00,
2013-03-30 00:52:00,30.0,28.0,30.29,NW,322,2.0,-999.0,93,-99.99,,,-99.99,,2013-03-30 06:52:00,
2013-03-30 01:02:00,30.0,28.0,30.29,NW,324,1.0,-999.0,93,-99.99,,,-99.99,,2013-03-30 07:02:00,
2013-03-30 01:12:00,30.0,28.0,30.29,NW,324,1.0,-999.0,93,-99.99,,,-99.99,,2013-03-30 07:12:00,
2013-03-30 01:22:00,30.0,28.0,30.29,NW,317,1.0,-999.0,93,-99.99,,,-99.99,,2013-03-30 07:22:00,
2013-03-30 01:32:00,30.0,28.0,30.29,NNW,331,0.0,-999.0,93,-99.99,,,-99.99,,2013-03-30 07:32:00,
2013-03-30 01:42:00,30.0,28.0,30.29,NNW,331,0.0,-999.0,93,-99.99,,,-99.99,,2013-03-30 07:42:00,
2013-03-30 01:52:00,30.0,28.0,30.30,NW,324,1.0,-999.0,93,-99.99,,,-99.99,,2013-03-30 07:52:00,
2013-03-30 02:01:00,29.0,27.0,30.30,NW,324,0.0,-999.0,94,-99.99,,,-99.99,,2013-03-30 08:01:00,
2013-03-30 02:12:00,29.0,27.0,30.30,NW,324,0.0,-999.0,94,-99.99,,,-99.99,,2013-03-30 08:12:00,
2013-03-30 02:21:00,29.0,27.0,30.31,NW,324,1.0,-999.0,94,-99.99,,,-99.99,,2013-03-30 08:21:00,
2013-03-30 02:31:00,29.0,27.0,30.31,NNW,329,0.0,-999.0,94,-99.99,,,-99.99,,2013-03-30 08:31:00,
2013-03-30 02:42:00,29.0,27.0,30.31,NNW,329,0.0,-999.0,94,-99.99,,,-99.99,,2013-03-30 08:42:00,
2013-03-30 02:53:00,29.0,27.0,30.30,NW,318,1.0,-999.0,94,-99.99,,,-99.99,,2013-03-30 08:53:00,
2013-03-30 03:01:00,29.0,27.0,30.31,NW,310,0.0,-999.0,93,-99.99,,,-99.99,,2013-03-30 09:01:00,
2013-03-30 03:11:00,29.0,27.0,30.31,NW,310,0.0,-999.0,93,-99.99,,,-99.99,,2013-03-30 09:11:00,
2013-03-30 03:22:00,29.0,28.0,30.31,NW,313,0.0,-999.0,95,-99.99,,,-99.99,,2013-03-30 09:22:00,
2013-03-30 03:33:00,29.0,27.0,30.30,NW,318,1.0,-999.0,94,-99.99,,,-99.99,,2013-03-30 09:33:00,
2013-03-30 03:42:00,29.0,27.0,30.30,NW,318,1.0,-999.0,94,-99.99,,,-99.99,,2013-03-30 09:42:00,
2013-03-30 03:53:00,29.0,27.0,30.31,NW,316,0.0,-999.0,94,-99.99,,,-99.99,,2013-03-30 09:53:00,
2013-03-30 04:02:00,29.0,27.0,30.31,NW,312,1.0,-999.0,94,-99.99,,,-99.99,,2013-03-30 10:02:00,
2013-03-30 04:12:00,29.0,27.0,30.31,NW,312,1.0,-999.0,94,-99.99,,,-99.99,,2013-03-30 10:12:00,
2013-03-30 04:22:00,29.0,27.0,30.31,North,349,1.0,-999.0,93,-99.99,,,-99.99,,2013-03-30 10:22:00,
2013-03-30 04:32:00,29.0,27.0,30.31,North,350,1.0,-999.0,93,-99.99,,,-99.99,,2013-03-30 10:32:00,
2013-03-30 04:42:00,29.0,27.0,30.31,North,350,1.0,-999.0,93,-99.99,,,-99.99,,2013-03-30 10:42:00,
2013-03-30 04:52:00,29.0,27.0,30.31,North,354,1.0,-999.0,93,-99.99,,,-99.99,,2013-03-30 10:52:00,
2013-03-30 05:02:00,29.0,27.0,30.32,NNW,330,1.0,-999.0,93,-99.99,,,-99.99,,2013-03-30 11:02:00,
2013-03-30 05:12:00,29.0,27.0,30.32,NNW,330,1.0,-999.0,93,-99.99,,,-99.99,,2013-03-30 11:12:00,
2013-03-30 05:22:00,29.0,27.0,30.32,NW,322,1.0,-999.0,93,-99.99,,,-99.99,,2013-03-30 11:22:00,
2013-03-30 05:32:00,29.0,27.0,30.31,NNW,327,1.0,-999.0,94,-99.99,,,-99.99,,2013-03-30 11:32:00,
2013-03-30 05:42:00,29.0,27.0,30.31,NNW,327,1.0,-999.0,94,-99.99,,,-99.99,,2013-03-30 11:42:00,
2013-03-30 05:53:00,29.0,27.0,30.31,NW,312,1.0,-999.0,94,-99.99,,,-99.99,,2013-03-30 11:53:00,
2013-03-30 06:02:00,28.0,27.0,30.31,NW,308,0.0,-999.0,94,-99.99,,,-99.99,,2013-03-30 12:02:00,
2013-03-30 06:12:00,28.0,27.0,30.31,NW,308,0.0,-999.0,94,-99.99,,,-99.99,,2013-03-30 12:12:00,
2013-03-30 06:22:00,28.0,27.0,30.31,NW,310,0.0,-999.0,95,-99.99,,,-99.99,,2013-03-30 12:22:00,
2013-03-30 06:32:00,28.0,27.0,30.31,NW,310,0.0,-999.0,95,-99.99,,,-99.99,,2013-03-30 12:32:00,
2013-03-30 06:42:00,28.0,27.0,30.31,NW,310,0.0,-999.0,95,-99.99,,,-99.99,,2013-03-30 12:42:00,
2013-03-30 06:53:00,28.0,27.0,30.32,NW,310,0.0,-999.0,96,-99.99,,,-99.99,,2013-03-30 12:53:00,
2013-03-30 07:02:00,28.0,27.0,30.32,North,8,0.0,-999.0,95,-99.99,,,-99.99,,2013-03-30 13:02:00,
2013-03-30 07:12:00,28.0,27.0,30.32,North,8,0.0,-999.0,95,-99.99,,,-99.99,,2013-03-30 13:12:00,
2013-03-30 07:22:00,28.0,27.0,30.32,North,8,0.0,-999.0,95,-99.99,,,-99.99,,2013-03-30 13:22:00,
2013-03-30 07:32:00,29.0,28.0,30.33,North,10,1.0,-999.0,95,-99.99,,,-99.99,,2013-03-30 13:32:00,
2013-03-30 07:42:00,29.0,28.0,30.33,North,10,1.0,-999.0,95,-99.99,,,-99.99,,2013-03-30 13:42:00,
2013-03-30 07:52:00,29.0,27.0,30.33,NE,53,3.0,-999.0,94,-99.99,,,-99.99,,2013-03-30 13:52:00,
2013-03-30 08:02:00,29.0,27.0,30.33,NE,50,2.0,-999.0,93,-99.99,,,-99.99,,2013-03-30 14:02:00,
2013-03-30 08:11:00,29.0,27.0,30.33,NE,50,2.0,-999.0,93,-99.99,,,-99.99,,2013-03-30 14:11:00,
2013-03-30 08:22:00,29.0,27.0,30.34,NE,56,2.0,-999.0,93,-99.99,,,-99.99,,2013-03-30 14:22:00,
2013-03-30 08:32:00,29.0,27.0,30.34,ENE,64,1.0,-999.0,93,-99.99,,,-99.99,,2013-03-30 14:32:00,
2013-03-30 08:42:00,29.0,27.0,30.34,ENE,64,1.0,-999.0,93,-99.99,,,-99.99,,2013-03-30 14:42:00,
2013-03-30 08:52:00,30.0,28.0,30.34,ENE,76,2.0,-999.0,93,-99.99,,,-99.99,,2013-03-30 14:52:00,
2013-03-30 09:02:00,30.0,28.0,30.35,East,81,3.0,-999.0,92,-99.99,,,-99.99,,2013-03-30 15:02:00,
2013-03-30 09:12:00,30.0,28.0,30.35,East,81,3.0,-999.0,92,-99.99,,,-99.99,,2013-03-30 15:12:00,
2013-03-30 09:22:00,30.0,28.0,30.35,East,97,1.0,-999.0,93,-99.99,,,-99.99,,2013-03-30 15:22:00,
2013-03-30 09:33:00,30.0,28.0,30.35,ENE,73,1.0,-999.0,93,-99.99,,,-99.99,,2013-03-30 15:33:00,
2013-03-30 09:42:00,30.0,28.0,30.35,ENE,73,1.0,-999.0,93,-99.99,,,-99.99,,2013-03-30 15:42:00,
2013-03-30 09:53:00,30.0,28.0,30.35,ENE,73,0.0,-999.0,92,-99.99,,,-99.99,,2013-03-30 15:53:00,
2013-03-30 10:02:00,31.0,29.0,30.35,ENE,68,0.0,-999.0,92,-99.99,,,-99.99,,2013-03-30 16:02:00,
2013-03-30 10:12:00,31.0,29.0,30.35,NNW,347,0.0,-999.0,91,-99.99,,,-99.99,,2013-03-30 16:12:00,
2013-03-30 10:22:00,31.0,29.0,30.35,NNW,347,0.0,-999.0,91,-99.99,,,-99.99,,2013-03-30 16:22:00,
2013-03-30 10:32:00,32.0,29.0,30.35,North,354,0.0,-999.0,90,-99.99,,,-99.99,,2013-03-30 16:32:00,
2013-03-30 10:42:00,32.0,29.0,30.35,North,354,0.0,-999.0,90,-99.99,,,-99.99,,2013-03-30 16:42:00,
2013-03-30 10:52:00,33.0,30.0,30.35,NW,318,0.0,-999.0,90,-99.99,,,-99.99,,2013-03-30 16:52:00,
2013-03-30 11:02:00,34.0,31.0,30.35,NW,318,0.0,-999.0,88,-99.99,,,-99.99,,2013-03-30 17:02:00,
2013-03-30 11:12:00,34.0,31.0,30.35,NW,318,0.0,-999.0,88,-99.99,,,-99.99,,2013-03-30 17:12:00,
2013-03-30 11:22:00,34.0,31.0,30.36,NW,318,0.0,-999.0,88,-99.99,,,-99.99,,2013-03-30 17:22:00,
2013-03-30 11:32:00,34.0,31.0,30.36,North,359,0.0,-999.0,89,-99.99,,,-99.99,,2013-03-30 17:32:00,
2013-03-30 11:42:00,34.0,31.0,30.36,North,359,0.0,-999.0,89,-99.99,,,-99.99,,2013-03-30 17:42:00,
2013-03-30 11:52:00,33.0,30.0,30.36,NW,314,1.0,-999.0,89,-99.99,,,-99.99,,2013-03-30 17:52:00,
2013-03-30 12:02:00,34.0,31.0,30.36,NW,314,2.0,-999.0,89,-99.99,,,-99.99,,2013-03-30 18:02:00,
2013-03-30 12:12:00,34.0,31.0,30.36,NW,314,2.0,-999.0,89,-99.99,,,-99.99,,2013-03-30 18:12:00,
2013-03-30 12:21:00,34.0,31.0,30.36,NW,313,3.0,-999.0,87,-99.99,,,-99.99,,2013-03-30 18:21:00,
2013-03-30 12:32:00,35.0,32.0,30.36,WNW,297,5.0,-999.0,87,-99.99,,,-99.99,,2013-03-30 18:32:00,
2013-03-30 12:42:00,35.0,32.0,30.36,WNW,297,5.0,-999.0,87,-99.99,,,-99.99,,2013-03-30 18:42:00,
2013-03-30 12:53:00,34.0,31.0,30.36,NW,310,4.0,-999.0,90,-99.99,,,-99.99,,2013-03-30 18:53:00,
2013-03-30 13:02:00,33.0,31.0,30.36,WNW,297,4.0,-999.0,93,-99.99,,,-99.99,,2013-03-30 19:02:00,
2013-03-30 13:12:00,33.0,31.0,30.36,WNW,297,4.0,-999.0,93,-99.99,,,-99.99,,2013-03-30 19:12:00,
2013-03-30 13:21:00,34.0,32.0,30.35,WNW,301,3.0,-999.0,91,-99.99,,,-99.99,,2013-03-30 19:21:00,
2013-03-30 13:31:00,35.0,32.0,30.35,WNW,301,2.0,-999.0,87,-99.99,,,-99.99,,2013-03-30 19:31:00,
2013-03-30 13:42:00,35.0,32.0,30.35,WNW,301,2.0,-999.0,87,-99.99,,,-99.99,,2013-03-30 19:42:00,
2013-03-30 13:53:00,35.0,32.0,30.35,NW,304,4.0,-999.0,88,-99.99,,,-99.99,,2013-03-30 19:53:00,
2013-03-30 14:02:00,36.0,32.0,30.35,NW,307,4.0,-999.0,86,-99.99,,,-99.99,,2013-03-30 20:02:00,
2013-03-30 14:12:00,36.0,32.0,30.35,NW,307,4.0,-999.0,86,-99.99,,,-99.99,,2013-03-30 20:12:00,
2013-03-30 14:21:00,36.0,32.0,30.34,WNW,295,5.0,-999.0,84,-99.99,,,-99.99,,2013-03-30 20:21:00,
2013-03-30 14:32:00,36.0,31.0,30.34,NW,308,6.0,-999.0,82,-99.99,,,-99.99,,2013-03-30 20:32:00,
2013-03-30 14:42:00,36.0,31.0,30.34,NW,308,6.0,-999.0,82,-99.99,,,-99.99,,2013-03-30 20:42:00,
2013-03-30 14:53:00,37.0,32.0,30.34,NW,305,5.0,-999.0,82,-99.99,,,-99.99,,2013-03-30 20:53:00,
2013-03-30 15:01:00,37.0,32.0,30.34,WNW,303,6.0,-999.0,81,-99.99,,,-99.99,,2013-03-30 21:01:00,
2013-03-30 15:12:00,37.0,32.0,30.34,WNW,303,6.0,-999.0,81,-99.99,,,-99.99,,2013-03-30 21:12:00,
2013-03-30 15:22:00,38.0,32.0,30.33,NW,306,5.0,-999.0,78,-99.99,,,-99.99,,2013-03-30 21:22:00,
2013-03-30 15:32:00,38.0,31.0,30.33,WNW,301,6.0,-999.0,76,-99.99,,,-99.99,,2013-03-30 21:32:00,
2013-03-30 15:43:00,38.0,31.0,30.33,WNW,301,6.0,-999.0,76,-99.99,,,-99.99,,2013-03-30 21:43:00,
2013-03-30 15:53:00,39.0,31.0,30.32,WNW,293,6.0,-999.0,74,-99.99,,,-99.99,,2013-03-30 21:53:00,
2013-03-30 16:02:00,39.0,30.0,30.32,NW,308,6.0,-999.0,71,-99.99,,,-99.99,,2013-03-30 22:02:00,
2013-03-30 16:12:00,39.0,30.0,30.32,NW,308,6.0,-999.0,71,-99.99,,,-99.99,,2013-03-30 22:12:00,
2013-03-30 16:23:00,39.0,30.0,30.32,WNW,301,5.0,-999.0,71,-99.99,,,-99.99,,2013-03-30 22:23:00,
2013-03-30 16:32:00,38.0,29.0,30.31,WNW,303,5.0,-999.0,70,-99.99,,,-99.99,,2013-03-30 22:32:00,
2013-03-30 16:43:00,38.0,29.0,30.31,WNW,303,5.0,-999.0,70,-99.99,,,-99.99,,2013-03-30 22:43:00,
2013-03-30 16:53:00,39.0,29.0,30.31,WNW,287,5.0,-999.0,67,-99.99,,,-99.99,,2013-03-30 22:53:00,
2013-03-30 17:02:00,40.0,28.0,30.30,WNW,287,6.0,-999.0,63,-99.99,,,-99.99,,2013-03-30 23:02:00,
2013-03-30 17:12:00,40.0,28.0,30.30,WNW,287,6.0,-999.0,63,-99.99,,,-99.99,,2013-03-30 23:12:00,
2013-03-30 17:22:00,39.0,27.0,30.29,NW,305,5.0,-999.0,61,-99.99,,,-99.99,,2013-03-30 23:22:00,
2013-03-30 17:32:00,41.0,28.0,30.29,NW,318,3.0,-999.0,59,-99.99,,,-99.99,,2013-03-30 23:32:00,
2013-03-30 17:42:00,41.0,28.0,30.29,NW,318,3.0,-999.0,59,-99.99,,,-99.99,,2013-03-30 23:42:00,
2013-03-30 17:53:00,40.0,26.0,30.29,NW,308,7.0,-999.0,58,-99.99,,,-99.99,,2013-03-30 23:53:00,
2013-03-30 18:02:00,40.0,25.0,30.28,WNW,291,6.0,-999.0,55,-99.99,,,-99.99,,2013-03-31 00:02:00,
2013-03-30 18:11:00,40.0,25.0,30.28,WNW,291,6.0,-999.0,55,-99.99,,,-99.99,,2013-03-31 00:11:00,
2013-03-30 18:22:00,40.0,25.0,30.28,WNW,299,6.0,-999.0,55,-99.99,,,-99.99,,2013-03-31 00:22:00,
2013-03-30 18:32:00,40.0,26.0,30.28,NW,308,4.0,-999.0,58,-99.99,,,-99.99,,2013-03-31 00:32:00,
2013-03-30 18:42:00,40.0,26.0,30.28,NW,308,4.0,-999.0,58,-99.99,,,-99.99,,2013-03-31 00:42:00,
2013-03-30 18:52:00,40.0,26.0,30.27,NW,314,5.0,-999.0,58,-99.99,,,-99.99,,2013-03-31 00:52:00,
2013-03-30 19:01:00,39.0,26.0,30.26,WNW,289,5.0,-999.0,59,-99.99,,,-99.99,,2013-03-31 01:01:00,
2013-03-30 19:11:00,39.0,26.0,30.26,WNW,289,5.0,-999.0,59,-99.99,,,-99.99,,2013-03-31 01:11:00,
2013-03-30 19:22:00,39.0,26.0,30.26,NW,322,2.0,-999.0,59,-99.99,,,-99.99,,2013-03-31 01:22:00,
2013-03-30 19:32:00,39.0,26.0,30.26,WNW,299,3.0,-999.0,60,-99.99,,,-99.99,,2013-03-31 01:32:00,
2013-03-30 19:42:00,39.0,26.0,30.26,WNW,299,3.0,-999.0,60,-99.99,,,-99.99,,2013-03-31 01:42:00,
2013-03-30 19:52:00,39.0,27.0,30.25,WNW,301,2.0,-999.0,61,-99.99,,,-99.99,,2013-03-31 01:52:00,
2013-03-30 20:02:00,38.0,26.0,30.25,NW,312,1.0,-999.0,61,-99.99,,,-99.99,,2013-03-31 02:02:00,
2013-03-30 20:12:00,38.0,26.0,30.25,NW,312,1.0,-999.0,61,-99.99,,,-99.99,,2013-03-31 02:12:00,
2013-03-30 20:22:00,37.0,26.0,30.25,NNW,347,2.0,-999.0,63,-99.99,,,-99.99,,2013-03-31 02:22:00,
2013-03-30 20:32:00,37.0,26.0,30.25,NE,43,3.0,-999.0,64,-99.99,,,-99.99,,2013-03-31 02:32:00,
2013-03-30 20:42:00,37.0,26.0,30.25,NE,43,3.0,-999.0,64,-99.99,,,-99.99,,2013-03-31 02:42:00,
2013-03-30 20:52:00,36.0,25.0,30.25,WNW,287,2.0,-999.0,65,-99.99,,,-99.99,,2013-03-31 02:52:00,
2013-03-30 21:02:00,36.0,26.0,30.25,ENE,59,2.0,-999.0,67,-99.99,,,-99.99,,2013-03-31 03:02:00,
2013-03-30 21:12:00,36.0,26.0,30.25,ENE,59,2.0,-999.0,67,-99.99,,,-99.99,,2013-03-31 03:12:00,
2013-03-30 21:22:00,35.0,26.0,30.25,NNE,33,1.0,-999.0,70,-99.99,,,-99.99,,2013-03-31 03:22:00,
2013-03-30 21:32:00,36.0,28.0,30.25,North,4,3.0,-999.0,71,-99.99,,,-99.99,,2013-03-31 03:32:00,
2013-03-30 21:43:00,36.0,28.0,30.25,North,4,3.0,-999.0,71,-99.99,,,-99.99,,2013-03-31 03:43:00,
2013-03-30 21:54:00,35.0,27.0,30.25,NW,305,2.0,-999.0,73,-99.99,,,-99.99,,2013-03-31 03:54:00,
2013-03-30 22:02:00,35.0,-99.9,30.25,NW,308,2.0,-999.0,72,-99.99,,,-99.99,,2013-03-31 04:02:00,
2013-03-30 22:12:00,35.0,27.0,30.25,NW,308,2.0,-999.0,72,-99.99,,,-99.99,,2013-03-31 04:12:00,
2013-03-30 22:22:00,35.0,27.0,30.25,NW,304,2.0,-999.0,73,-99.99,,,-99.99,,2013-03-31 04:22:00,
2013-03-30 22:32:00,35.0,28.0,30.25,NW,318,2.0,-999.0,74,-99.99,,,-99.99,,2013-03-31 04:32:00,
2013-03-30 22:42:00,35.0,28.0,30.25,NW,318,2.0,-999.0,74,-99.99,,,-99.99,,2013-03-31 04:42:00,
2013-03-30 22:52:00,34.0,27.0,30.25,WNW,293,1.0,-999.0,75,-99.99,,,-99.99,,2013-03-31 04:52:00,
2013-03-30 23:02:00,34.0,28.0,30.24,NE,38,1.0,-999.0,77,-99.99,,,-99.99,,2013-03-31 05:02:00,
2013-03-30 23:12:00,34.0,28.0,30.24,NE,38,1.0,-999.0,77,-99.99,,,-99.99,,2013-03-31 05:12:00,
2013-03-30 23:22:00,35.0,29.0,30.24,NNE,26,2.0,-999.0,77,-99.99,,,-99.99,,2013-03-31 05:22:00,
2013-03-30 23:32:00,35.0,29.0,30.24,NNE,23,1.0,-999.0,77,-99.99,,,-99.99,,2013-03-31 05:32:00,
2013-03-30 23:42:00,35.0,29.0,30.24,NNE,23,1.0,-999.0,77,-99.99,,,-99.99,,2013-03-31 05:42:00,
2013-03-30 23:53:00,34.0,28.0,30.23,NE,54,0.0,-999.0,77,-99.99,,,-99.99,,2013-03-31 05:53:00,